TimeEDT,TemperatureF,Dew PointF,Humidity,Sea Level PressureIn,VisibilityMPH,Wind Direction,Wind SpeedMPH,Gust SpeedMPH,PrecipitationIn,Events,Conditions,WindDirDegrees,DateUTC
12:51 AM,63.0,50.0,63,29.93,10.0,North,4.6,-,N/A,,Clear,350,2013-04-11 04:51:00
1:51 AM,55.9,48.9,77,29.92,10.0,Calm,Calm,-,N/A,,Clear,0,2013-04-11 05:51:00
2:51 AM,51.1,46.9,86,29.90,10.0,Calm,Calm,-,N/A,,Clear,0,2013-04-11 06:51:00
3:51 AM,50.0,46.0,86,29.89,10.0,Calm,Calm,-,N/A,,Clear,0,2013-04-11 07:51:00
4:51 AM,48.0,45.0,89,29.89,10.0,Calm,Calm,-,N/A,,Clear,0,2013-04-11 08:51:00
5:51 AM,46.9,45.0,93,29.89,10.0,Calm,Calm,-,N/A,,Clear,0,2013-04-11 09:51:00
6:51 AM,46.9,44.1,90,29.90,10.0,Calm,Calm,-,N/A,,Clear,0,2013-04-11 10:51:00
7:51 AM,53.1,48.9,86,29.92,10.0,Calm,Calm,-,N/A,,Mostly Cloudy,0,2013-04-11 11:51:00
8:51 AM,55.0,50.0,83,29.93,10.0,Calm,Calm,-,N/A,,Scattered Clouds,0,2013-04-11 12:51:00
9:51 AM,64.0,52.0,65,29.91,10.0,Calm,Calm,-,N/A,,Scattered Clouds,0,2013-04-11 13:51:00
10:51 AM,75.0,51.1,43,29.88,10.0,West,8.1,-,N/A,,Partly Cloudy,260,2013-04-11 14:51:00
11:51 AM,77.0,51.1,40,29.86,10.0,Variable,4.6,-,N/A,,Partly Cloudy,0,2013-04-11 15:51:00
12:51 PM,78.1,50.0,37,29.84,10.0,ENE,3.5,-,N/A,,Scattered Clouds,60,2013-04-11 16:51:00
1:51 PM,78.1,48.0,35,29.82,10.0,Calm,Calm,-,N/A,,Clear,0,2013-04-11 17:51:00
2:51 PM,80.1,48.9,34,29.79,10.0,North,4.6,-,N/A,,Clear,350,2013-04-11 18:51:00
3:51 PM,79.0,48.0,34,29.75,10.0,North,4.6,-,N/A,,Clear,350,2013-04-11 19:51:00
4:51 PM,79.0,48.0,34,29.73,10.0,NNW,3.5,-,N/A,,Mostly Cloudy,340,2013-04-11 20:51:00
5:51 PM,80.1,48.0,32,29.71,10.0,NNW,5.8,-,N/A,,Clear,340,2013-04-11 21:51:00
6:51 PM,77.0,48.9,37,29.71,10.0,Calm,Calm,-,N/A,,Scattered Clouds,0,2013-04-11 22:51:00
7:51 PM,75.9,44.1,32,29.69,10.0,South,8.1,-,N/A,,Partly Cloudy,170,2013-04-11 23:51:00
8:51 PM,73.9,46.9,38,29.70,10.0,South,12.7,18.4,N/A,,Clear,180,2013-04-12 00:51:00
9:51 PM,72.0,48.9,44,29.70,10.0,South,10.4,-,N/A,,Clear,170,2013-04-12 01:51:00
10:51 PM,71.1,48.9,45,29.66,10.0,South,10.4,19.6,N/A,,Scattered Clouds,170,2013-04-12 02:51:00
11:51 PM,71.1,48.9,45,29.65,10.0,South,12.7,19.6,N/A,,Scattered Clouds,170,2013-04-12 03:51:00